EW4423 Weather Reports


Display with metric or nautical units.
time (UTC)temp
F
wind
direction
speed
MPH
gust
MPH
rain 1hr
in
rain 24hr
in
rain mn
in
humidity
%
barometer
mb
20260504060104 61 199 7.0 9.0 0.00 0.00 0.00 67 1015.6
20260504044544 63 222 4.0 8.0 0.00 0.00 0.00 65 1016.0
20260504043044 63 205 7.0 10.0 0.00 0.00 0.00 65 1015.9
20260504041543 63 199 6.0 9.0 0.00 0.00 0.00 63 1015.9
20260504040042 63 193 6.0 8.0 0.00 0.00 0.00 63 1016.0
20260504034553 64 180 5.0 8.0 0.00 0.00 0.00 62 1015.8
20260504033051 64 205 6.0 9.0 0.00 0.00 0.00 60 1015.8
20260504031556 65 194 5.0 7.0 0.00 0.00 0.00 57 1015.9
20260504030052 66 189 4.0 6.0 0.00 0.00 0.00 56 1016.0
20260504024544 66 188 3.0 6.0 0.00 0.00 0.00 55 1015.9
20260504023039 67 196 4.0 6.0 0.00 0.00 0.00 53 1016.0
20260504021538 69 200 4.0 6.0 0.00 0.00 0.00 52 1015.9
20260504020038 70 204 3.0 5.0 0.00 0.00 0.00 50 1015.7
20260504014539 71 207 2.0 5.0 0.00 0.00 0.00 48 1015.8
20260504013039 72 216 2.0 4.0 0.00 0.00 0.00 48 1015.7
20260504011535 73 216 3.0 5.0 0.00 0.00 0.00 47 1015.5
20260504010035 73 216 4.0 8.0 0.00 0.00 0.00 47 1015.4
20260504004535 75 217 4.0 9.0 0.00 0.00 0.00 46 1015.4
20260504003041 76 208 6.0 11.0 0.00 0.00 0.00 44 1015.4
20260504001532 78 203 8.0 12.0 0.00 0.00 0.00 43 1015.5
20260504000030 79 219 5.0 14.0 0.00 0.00 0.00 42 1015.6
20260503234529 79 210 6.0 13.0 0.00 0.00 0.00 42 1015.7
20260503233036 80 215 7.0 13.0 0.00 0.00 0.00 42 1015.7
20260503231528 81 196 9.0 14.0 0.00 0.00 0.00 41 1015.7
20260503230032 81 240 6.0 13.0 0.00 0.00 0.00 40 1016.0
20260503224530 81 238 7.0 19.0 0.00 0.00 0.00 39 1015.9
20260503223026 82 215 7.0 18.0 0.00 0.00 0.00 39 1015.9
20260503221523 82 229 10.0 16.0 0.00 0.00 0.00 38 1016.0
20260503220023 82 245 5.0 16.0 0.00 0.00 0.00 40 1016.2
20260503214523 82 246 4.0 13.0 0.00 0.00 0.00 41 1016.2
20260503213018 82 194 10.0 20.0 0.00 0.00 0.00 42 1016.6
20260503211515 82 215 6.0 16.0 0.00 0.00 0.00 43 1016.8
20260503210013 82 223 8.0 16.0 0.00 0.00 0.00 42 1017.1
20260503204509 82 200 11.0 15.0 0.00 0.00 0.00 44 1017.3
20260503203007 82 252 8.0 17.0 0.00 0.00 0.00 44 1017.6
20260503201504 81 205 11.0 14.0 0.00 0.00 0.00 45 1017.8
20260503200002 81 223 5.0 19.0 0.00 0.00 0.00 46 1018.1
20260503194603 81 267 8.0 15.0 0.00 0.00 0.00 46 1018.2
20260503193057 80 209 7.0 14.0 0.00 0.00 0.00 46 1018.5
20260503191555 80 301 10.0 16.0 0.00 0.00 0.00 46 1018.8
20260503190052 80 218 8.0 16.0 0.00 0.00 0.00 46 1019.0
20260503184605 80 261 7.0 18.0 0.00 0.00 0.00 48 1019.1
20260503183052 79 219 10.0 15.0 0.00 0.00 0.00 49 1019.4
20260503181548 78 254 9.0 18.0 0.00 0.00 0.00 49 1019.6
20260503180042 78 241 9.0 21.0 0.00 0.00 0.00 51 1019.9
20260503174541 78 273 8.0 21.0 0.00 0.00 0.00 52 1020.1
20260503173038 77 241 10.0 15.0 0.00 0.00 0.00 53 1020.4
20260503171549 76 253 7.0 19.0 0.00 0.00 0.00 55 1020.6
20260503081509 53 179 0.0 2.0 0.00 0.00 0.00 72 1019.7